Location: Congrier
(47.8099°N, 1.1170°W)
Time: 00:08:52
(UTC+00:00)

SKYMED 2 - Pass Details

Date: 28 January 2023
Orbit: 621 x 623 km, 97.9° (Epoch: 21 March)

Event Time Altitude Azimuth Distance (km) Brightness Sun altitude
Rises 17:40:55 0° 20° (NNE) 2,920 6.6 -7.4°
Reaches altitude 10° 17:43:16 10° 29° (NNE) 2,007 5.8 -7.8°
Maximum altitude 17:47:20 37° 97° (E) 974 4.1 -8.4°
Drops below altitude 10° 17:51:21 10° 166° (SSE) 1,990 6.2 -9.1°
Sets 17:53:40 0° 174° (S) 2,891 7.1 -9.5°
